Reflectivity
-20 -20 -20 -20 -20 -20 -20 -20 -20 -20 -20 -20 -20 -20 -20 -20 -20 -20 -20 -20 -20 -20 -20 -20 -20 -20 -20 -20 -20 -20 -20 -20 -20 -20 -20 -20 -20 -20 -20 12 10 9 -9 -12
-20 -20 -20 -20 -20 -20 -20 -20 -20 -20 -20 -20 -20 -20 -20 -20 -20 -20 -20 -20 -20 -20 -20 -20 -20 -20 -20 -20 -20 -20 -20 -20 -20 -20 -20 -20 -20 -20 -20 -1 -3 20 8 7
-20 -20 -20 -20 -20 -20 -20 -20 -20 -20 -20 -20 -20 -20 -20 -20 -20 -20 -20 -20 -20 -20 -20 -20 -20 -20 -20 -20 -20 -20 -20 -20 -20 -20 -20 -20 -20 -20 -2 -8 13 19 21 7
-20 -20 -20 -20 -20 -20 -20 -20 -20 -20 -20 -20 -20 -20 -20 -20 -20 -20 -20 -20 -20 -20 -20 -20 -20 -20 -20 -20 -20 -20 -20 -20 -20 -20 -20 -20 -20 -16 -20 -20 -18 -7 5 -9
-20 -20 -20 -20 -20 -20 -20 -20 -20 -20 -16 -20 -20 -5 -20 -20 -20 -20 -20 -20 -20 -20 -20 -20 -20 -20 -20 -20 -20 -20 -20 -20 -20 -20 -20 -20 -20 -20 -20 -20 -20 -1 -3 7
-20 -20 -20 -20 -20 -20 -20 -20 -20 -20 -13 -6 -20 -20 -20 -20 -20 -20 -20 -17 -13 -20 -20 -20 -20 -20 -20 -20 -20 -20 -20 -20 -20 -20 -20 -20 -20 -20 -20 -20 -20 -5 -2 12
-20 -20 -20 -20 -20 -20 -20 -20 -20 -20 -20 -20 -20 -20 -20 -20 -20 -20 -10 -17 -20 -20 -20 -20 -20 -20 -20 -20 -20 -20 -20 -20 -20 -20 -20 -20 -20 -20 -20 -20 -20 -18 -8 8
-20 -20 -20 -20 -20 -20 -8 -11 -20 -20 -20 -20 -20 -20 -20 -20 -20 -20 2 -20 -2 9 6 -20 -20 -20 -20 -20 -20 -20 -20 -20 -20 -20 -20 -20 -20 -20 -20 -20 -20 -20 -20 -11
-20 -20 -20 -19 0 6 -20 -6 -20 -17 -20 -20 -20 -20 -20 -20 -4 11 -5 -19 12 -7 -14 -14 -20 -20 -20 -20 -20 -20 -20 -20 -20 -20 -20 -20 -20 -20 -20 -20 -20 -20 -20 -20
-20 -20 -19 -16 4 0 9 18 -9 -7 -20 -20 -20 -20 -20 -4 6 -0 9 28 12 10 11 -20 -20 -20 -20 -20 -20 -20 -20 -20 -20 -20 -20 -20 -20 -20 -20 -20 -20 -16 -20 -20
-11 -20 -20 -13 -20 -13 10 1 9 11 -20 -20 -20 -20 13 17 28 24 25 33 28 16 -9 7 -20 -20 -20 -20 -20 -20 -20 -20 -20 -20 -20 -20 -20 -20 -20 -20 -20 -20 -20 -20
-20 0 -20 -20 -20 -20 -20 -20 -9 -3 -11 -9 -20 -20 12 10 20 23 15 14 8 1 -1 -15 -20 -17 -20 -20 -20 -20 -20 -20 -20 -20 -20 -20 -20 -20 -20 -20 -20 -20 -20 -20
-20 -17 -20 -20 -20 -18 -20 -20 -20 -20 -20 -5 -19 -12 2 11 1 13 17 17 19 13 -13 -8 3 4 17 1 -17 -10 -13 -20 -9 -18 17 -10 -20 -20 -20 -9 -20 -20 -20 -20
-20 -9 -20 -20 -20 -20 -20 -20 -20 -20 -14 -20 -11 -8 18 2 20 22 27 25 8 -9 1 2 -0 5 11 7 15 9 21 14 4 8 -2 -20 -13 -20 -20 -20 -20 -20 -10 -20
-20 -20 -20 -20 -20 -20 -20 -20 -20 -20 -20 -20 -18 -17 -15 9 22 34 34 31 21 17 20 19 20 28 21 13 14 26 32 14 9 16 15 12 8 32 29 27 17 -5 18 22
-20 -20 -20 -20 -20 -20 -20 -20 -20 -20 -20 -20 -20 -12 -20 13 21 15 29 32 29 31 32 35 36 36 30 35 38 30 28 19 32 31 16 30 36 32 37 41 40 17 8 9
-20 -20 -20 -20 -20 -20 -20 -20 -20 -20 -20 -20 -20 -20 -8 -12 9 3 12 7 22 22 26 32 26 21 21 30 32 37 37 38 39 38 36 37 42 37 35 39 35 27 40 36
-20 -20 -20 -20 -20 -20 -20 -20 -20 -20 -20 -20 -20 -20 -16 -1 -20 -20 -20 -16 5 -19 -16 -20 -20 -20 -13 18 5 17 22 25 29 25 35 36 36 35 35 38 34 32 32 30
-20 -20 -20 -20 -20 -20 -20 -20 -20 -20 -20 -20 0 -20 -20 -20 -20 -20 -20 -20 -20 -20 -20 -20 -20 -20 -20 -20 -20 -20 -20 -3 11 8 -15 -8 -12 -12 9 14 16 18 23 11
-20 -20 -20 -20 -20 -20 -20 -20 -20 -20 -6 7 -20 -20 -20 -20 -20 -20 -20 -20 -20 -20 -20 -20 -20 -20 -20 -20 -20 -20 -20 -20 -20 -20 -20 -10 -16 -18 0 -1 -10 -10 6 10
-20 -20 -20 -20 -20 -20 -20 -20 -20 -20 -20 -19 -20 -20 -20 -20 -20 -20 -20 -20 -20 -20 -20 -20 -20 -20 -20 -20 -20 -20 -20 -20 -20 -20 -20 -20 -20 -20 -20 -20 -20 -20 -20 -20
-20 -20 -20 -20 -20 -20 -20 -20 -20 -20 -20 -20 -20 -20 -20 -20 -20 -20 -20 -20 -20 -20 -20 -20 -20 -20 -20 -20 -20 -20 -20 -20 -20 -20 -20 -20 -20 -20 -20 -20 -20 -20 -20 -20
-20 -20 -20 -20 -20 -20 -20 -20 -20 -20 -20 -20 -20 -20 -20 -20 -20 -20 -20 -20 -20 -20 -20 -20 -20 -20 -20 -20 -20 -20 -20 -20 -20 -20 -20 -20 -20 -20 -20 -20 -20 -20 -20 -20
-20 -20 -20 -20 -20 -20 -20 -20 -20 -20 -20 -20 -20 -20 -20 -20 -20 -20 -20 -20 -20 -20 -20 -20 -20 -20 -20 -20 -20 -20 -20 -20 -20 -20 -20 -20 -20 -20 -20 -20 -20 -20 -20 -20
-20 -20 -20 -20 -20 -20 -20 -20 -20 -20 -20 -20 -20 -20 -20 -20 -20 -20 -20 -20 -20 -20 -20 -20 -20 -20 -20 -20 -20 -20 -20 -20 -20 -20 -20 -20 -20 -20 -20 -20 -20 -20 -20 -15
-20 -20 -20 -20 -20 -20 -20 -20 -20 -20 -20 -20 -20 -20 -20 -20 -20 -20 -20 -20 -20 -20 -20 -20 -20 -20 -20 -20 -20 -20 -20 -20 -20 -20 -20 -20 -20 -20 -20 -20 -20 -20 -20 -20
Wind_Speed
4 4 2 3 3 4 5 2 5 7 9 6 13 17 20 22 11 15 14 14 14 15 17 15 14 12 11 13 14 15 14 12 9 7 7 7 8 7 7 9 15 16 14 16
4 1 4 4 4 4 3 3 6 8 3 3 13 20 18 13 7 6 7 9 12 12 15 15 15 12 11 14 14 15 15 14 12 9 7 7 8 8 9 9 12 15 16 16
3 2 7 4 4 3 3 5 4 6 8 7 9 9 4 4 3 4 8 10 11 14 16 17 16 16 13 13 14 15 15 15 13 13 8 7 5 4 8 7 7 12 13 16
2 2 2 3 3 5 3 7 6 4 6 4 4 7 6 5 7 6 10 12 15 15 17 17 18 16 15 15 13 15 16 16 14 14 12 14 10 11 8 9 9 10 14 16
4 1 2 0 4 6 7 4 3 2 5 4 1 3 8 3 5 9 16 17 18 21 19 19 19 17 16 13 12 13 14 14 13 13 15 12 14 10 8 8 12 13 13 13
5 3 3 4 2 6 2 2 3 2 2 3 4 5 6 3 4 16 20 18 20 21 20 19 18 15 13 10 11 10 12 14 13 14 15 17 17 15 11 11 10 10 9 11
5 3 4 3 1 3 2 3 4 4 2 6 1 3 10 4 5 16 21 20 19 19 19 17 17 13 12 9 10 10 12 13 13 13 14 17 18 17 18 17 12 12 10 9
3 5 3 3 3 3 3 4 4 4 2 5 3 6 5 5 11 19 19 19 19 19 17 18 16 12 12 11 9 12 12 13 12 14 17 16 17 12 13 15 13 11 12 11
1 5 1 3 3 2 2 5 4 2 2 4 2 6 6 5 20 20 20 19 22 23 21 14 12 12 11 11 10 11 13 15 14 14 13 15 15 17 15 15 13 11 11 10
1 3 0 3 3 7 5 2 2 2 4 5 3 4 5 17 26 23 25 24 23 20 18 12 7 8 8 11 9 8 11 12 11 12 13 13 15 16 16 15 17 16 12 12
2 1 4 3 2 1 3 3 4 4 2 3 5 5 4 14 16 17 17 17 17 17 16 14 9 7 7 7 6 8 9 10 10 12 12 13 14 16 16 16 15 13 14 14
3 1 3 4 3 3 2 3 2 1 2 2 2 6 3 15 16 15 16 17 17 17 15 13 13 11 6 1 2 2 3 7 10 11 11 13 13 13 14 13 12 13 14 14
3 1 3 4 3 1 4 2 3 3 1 3 1 6 12 15 19 21 19 19 16 16 17 14 12 12 10 9 6 3 3 6 6 6 8 10 11 11 11 11 11 12 14 16
1 2 4 4 4 2 4 4 3 2 1 3 4 8 15 18 19 21 22 22 20 18 19 20 19 16 17 15 7 1 4 7 8 5 4 4 3 8 9 11 12 14 15 17
2 1 2 6 5 2 3 5 5 1 5 4 4 8 11 15 14 17 16 20 20 22 21 18 17 17 17 16 16 16 16 13 5 3 4 2 4 5 7 9 12 12 8 3
1 2 2 5 6 4 5 8 7 4 5 4 5 3 3 9 9 16 18 20 21 22 22 20 19 19 17 16 14 15 17 20 20 17 14 9 8 7 3 2 13 10 8 8
1 2 1 5 3 5 8 7 6 3 4 2 2 2 7 11 11 13 14 16 17 17 18 18 18 18 18 18 16 17 16 17 17 15 13 13 15 13 12 11 15 14 12 13
2 1 1 4 4 3 6 1 2 4 8 6 4 3 6 5 4 8 11 12 14 15 17 16 15 16 17 17 18 15 18 18 19 20 19 17 17 14 16 19 18 17 15 15
4 3 1 2 3 8 2 4 5 4 6 6 5 3 3 3 2 3 9 9 10 12 12 11 12 13 15 17 14 14 18 17 19 18 19 17 15 16 16 17 15 12 13 13
4 3 3 2 0 4 5 3 3 3 5 7 6 5 2 3 3 3 3 5 7 8 10 11 12 12 14 15 14 16 18 17 17 15 14 14 14 16 15 13 13 11 12 12
2 1 4 4 4 8 6 5 4 3 5 5 6 5 5 4 3 3 2 1 2 3 6 7 9 10 10 10 11 16 14 15 12 11 12 14 14 15 13 12 11 11 10 11
7 5 4 2 2 8 7 4 7 6 1 6 5 5 5 5 5 3 3 1 3 4 5 6 6 7 7 8 8 10 12 9 8 10 12 13 13 10 10 12 10 11 10 11
4 7 5 9 8 4 7 4 5 4 5 5 6 6 7 7 6 7 5 5 3 2 1 2 3 3 6 7 7 9 6 7 8 10 10 10 11 10 10 11 11 9 11 8
5 4 4 2 4 11 8 5 4 6 6 5 4 7 8 7 7 6 5 5 4 4 3 2 3 3 4 5 5 5 4 5 6 9 8 7 10 10 9 7 7 8 8 8
5 5 5 8 10 4 10 10 9 9 6 6 5 7 9 7 6 6 5 6 5 5 3 3 3 3 2 3 4 4 4 2 5 6 6 7 6 7 7 7 7 6 7 7
6 8 7 8 6 2 6 4 12 11 12 10 9 6 7 8 8 6 6 6 5 6 4 4 4 4 3 2 1 3 3 3 4 5 4 5 5 4 5 5 5 12 12 12
Wind_Direction
14 69 196 208 169 134 130 182 264 246 263 282 262 275 277 280 274 272 274 274 277 274 275 276 268 253 240 241 231 232 236 232 222 223 225 227 223 214 225 210 201 197 193 188
36 290 246 122 141 178 203 268 273 283 223 242 286 287 282 283 255 230 247 290 287 284 290 290 284 260 239 243 232 231 230 228 221 214 222 220 207 214 219 217 202 200 196 192
148 204 103 131 182 205 206 213 238 251 322 272 287 287 336 288 250 264 259 283 288 285 295 298 294 283 274 240 232 227 228 229 220 213 209 210 213 213 209 207 210 204 206 193
238 262 240 190 241 150 276 215 240 291 343 315 37 295 297 278 292 287 279 303 302 301 299 292 290 282 280 256 231 222 216 217 220 211 208 207 213 214 217 200 201 200 199 194
262 147 192 14 221 157 229 163 187 216 248 291 333 231 271 336 305 305 315 316 311 306 299 292 284 278 282 264 233 223 219 218 219 212 207 203 210 213 207 200 199 202 206 202
244 296 240 217 236 201 300 359 4 309 244 258 234 184 278 217 267 317 321 318 312 308 296 283 277 274 277 268 251 224 211 214 211 212 213 209 210 206 204 203 205 211 204 208
331 263 301 196 284 44 92 29 335 357 0 230 186 190 251 241 265 331 324 318 308 303 298 287 277 272 275 267 241 219 216 220 214 210 218 215 216 211 205 204 205 206 208 203
2 336 193 166 188 174 189 155 162 259 271 291 130 238 260 229 317 330 327 320 314 309 296 287 276 264 266 260 236 213 209 226 217 210 214 216 217 213 214 214 202 206 207 204
60 282 267 187 216 201 197 214 186 241 253 272 250 293 303 329 325 333 331 328 329 324 314 284 262 248 255 259 245 224 214 215 217 217 217 214 211 209 207 215 212 203 203 206
230 304 150 290 237 215 222 325 248 211 304 279 289 297 275 328 330 340 341 335 325 329 336 341 299 265 246 246 250 235 228 226 218 213 212 210 206 208 210 207 217 204 205 206
198 135 319 268 250 336 190 267 230 300 207 294 312 277 219 335 330 331 326 324 326 337 341 344 329 293 257 260 254 241 230 221 214 211 210 208 209 208 207 207 212 208 204 204
202 296 284 253 196 241 303 266 248 224 254 225 272 275 308 346 342 345 337 336 344 348 350 353 353 351 336 241 216 259 263 204 211 223 215 210 215 198 206 198 204 210 212 215
174 236 351 342 21 81 261 268 241 242 66 272 300 297 334 346 349 350 350 351 356 357 357 356 359 357 349 316 253 199 210 238 200 193 209 215 207 199 208 201 203 211 217 219
152 228 194 204 225 253 304 306 308 170 166 283 235 285 335 351 352 351 347 348 359 9 11 11 8 4 12 3 13 125 285 254 213 179 151 248 211 209 205 208 213 217 217 216
154 260 244 251 251 287 267 285 309 319 241 225 317 317 331 346 357 351 345 355 6 12 12 8 7 10 10 11 24 29 17 331 209 148 30 162 288 298 264 219 211 218 205 204
5 292 92 277 237 239 264 266 263 241 262 277 304 306 325 323 3 3 359 354 1 4 8 12 13 13 14 22 29 39 27 30 49 46 33 74 95 59 62 194 168 100 117 97
4 158 94 264 6 307 289 224 210 257 233 227 325 305 324 329 8 16 359 354 357 359 3 8 8 12 16 18 23 27 31 46 50 57 67 84 83 66 53 55 63 66 68 74
172 125 158 275 354 279 256 316 173 230 258 210 256 275 299 302 353 40 19 357 354 356 360 5 5 11 14 19 26 29 33 36 40 42 46 47 52 51 50 53 57 58 60 62
173 135 210 274 245 288 274 227 187 179 288 181 191 221 280 334 72 44 26 19 5 0 0 6 8 8 21 25 17 32 43 41 41 36 36 33 44 55 51 52 50 53 67 66
94 98 147 186 217 247 258 162 139 105 283 161 178 210 194 131 54 275 12 3 11 360 359 0 6 19 26 18 25 45 44 41 40 33 36 39 39 46 48 49 53 52 57 64
208 193 202 204 255 281 228 163 160 141 243 158 170 179 178 162 190 152 105 43 15 356 13 2 12 22 6 356 27 40 31 37 28 31 39 41 40 42 40 48 44 48 55 60
185 161 209 126 243 295 154 78 165 214 133 161 159 159 160 143 152 169 169 115 51 23 24 13 33 17 356 9 35 47 41 9 23 44 48 48 51 53 49 52 49 51 53 59
248 194 192 186 217 253 225 179 202 179 173 199 162 164 155 156 188 187 190 188 169 161 99 45 51 31 15 22 33 54 9 13 31 46 44 46 47 43 43 55 57 53 51 53
246 174 224 354 252 224 235 231 230 196 213 201 195 170 169 174 178 187 186 200 196 205 178 157 92 64 38 25 32 44 8 17 51 58 51 53 63 58 55 56 47 55 48 50
210 146 201 269 274 309 257 225 212 212 207 185 188 189 192 176 190 187 203 209 207 202 195 176 135 115 75 40 39 20 10 38 66 68 60 57 57 53 65 63 61 65 54 52
190 192 177 224 256 225 260 230 188 186 195 197 175 187 202 189 193 187 211 206 199 203 195 200 195 172 173 155 71 9 15 48 67 66 55 57 61 58 59 66 74 62 72 66